Little Lake Harris Weather Center

Moon Phase Calendar



Little Lake Harris Water Level
Online Cameras

 


      

Current Conditions in Yalaha
4/20/2024 7:19:00 AM

64°F
Feels Like 64
Clear
Humidity
93%
Pressure
30.06"
Wind
0
Dew Point
62°F
UV Index
0/10 (Low)
Visibility
6 mi

Hourly Forecast

Date & Time Sat, Apr 20
7:00 AM
Sat, Apr 20
8:00 AM
Sat, Apr 20
9:00 AM
Sat, Apr 20
10:00 AM
Sat, Apr 20
11:00 AM
Sat, Apr 20
12:00 PM
Sat, Apr 20
1:00 PM
Sat, Apr 20
2:00 PM
Sat, Apr 20
3:00 PM
Sat, Apr 20
4:00 PM
Sat, Apr 20
5:00 PM
Sat, Apr 20
6:00 PM
Sat, Apr 20
7:00 PM
Sat, Apr 20
8:00 PM
Sat, Apr 20
9:00 PM
Sat, Apr 20
10:00 PM
Sat, Apr 20
11:00 PM
Sun, Apr 21
12:00 AM
Sun, Apr 21
1:00 AM
Sun, Apr 21
2:00 AM
Sun, Apr 21
3:00 AM
Sun, Apr 21
4:00 AM
Sun, Apr 21
5:00 AM
Sun, Apr 21
6:00 AM
Sun, Apr 21
7:00 AM
Sun, Apr 21
8:00 AM
Sun, Apr 21
9:00 AM
Sun, Apr 21
10:00 AM
Sun, Apr 21
11:00 AM
Sun, Apr 21
12:00 PM
Sun, Apr 21
1:00 PM
Sun, Apr 21
2:00 PM
Sun, Apr 21
3:00 PM
Sun, Apr 21
4:00 PM
Sun, Apr 21
5:00 PM
Sun, Apr 21
6:00 PM
Sun, Apr 21
7:00 PM
Sun, Apr 21
8:00 PM
Sun, Apr 21
9:00 PM
Sun, Apr 21
10:00 PM
Sun, Apr 21
11:00 PM
Mon, Apr 22
12:00 AM
Mon, Apr 22
1:00 AM
Mon, Apr 22
2:00 AM
Mon, Apr 22
3:00 AM
Mon, Apr 22
4:00 AM
Mon, Apr 22
5:00 AM
Mon, Apr 22
6:00 AM
Condition
Clear

Clear

Clear

Clear

Clear

Clear

Clear

Clear

Clear

Clear

Clear

Clouds

Clouds

Clouds

Clouds

Clouds

Clouds

Clouds

Clouds

Clouds

Clouds

Clouds

Clouds

Clouds

Clouds

Clouds

Clouds

Clouds

Clouds

Clouds

Clouds

Clouds

Clouds

Clouds

Clouds

Clouds

Clouds

Clouds

Clouds

Clouds

Clouds

Clouds

Clouds

Clouds

Clouds

Clouds

Clouds

Clouds
Temperature 64°F65°F68°F73°F79°F86°F88°F90°F92°F92°F89°F86°F83°F76°F71°F69°F67°F66°F66°F66°F65°F65°F65°F66°F65°F68°F72°F76°F80°F84°F87°F90°F90°F88°F84°F81°F78°F74°F73°F72°F69°F68°F68°F66°F64°F63°F63°F62°F
Feels Like 64°F65°F68°F73°F79°F85°F86°F88°F89°F89°F87°F84°F82°F76°F71°F69°F67°F66°F66°F66°F66°F65°F65°F66°F65°F68°F72°F76°F80°F83°F86°F88°F88°F86°F83°F81°F78°F74°F73°F72°F70°F69°F68°F67°F65°F64°F63°F62°F
Cloudiness 0%2%0%2%2%2%2%3%0%1%5%11%12%13%30%37%58%68%75%78%37%26%50%63%70%75%100%100%100%100%100%91%14%35%26%35%48%57%100%100%99%76%78%75%22%28%36%35%
Visibility 6 mi6 mi6 mi6 mi6 mi6 mi6 mi6 mi6 mi6 mi6 mi6 mi6 mi6 mi6 mi6 mi6 mi6 mi6 mi6 mi6 mi6 mi6 mi6 mi6 mi6 mi6 mi6 mi6 mi6 mi6 mi6 mi6 mi6 mi6 mi6 mi6 mi6 mi6 mi6 mi6 mi6 mi6 mi6 mi6 mi6 mi6 mi6 mi
Precipitation 0%0%0%0%0%0%0%0%0%0%0%0%0%0%0%0%0%0%0%0%0%0%0%0%0%0%0%0%0%0%0%0%0%0%0%0%0%0%0%0%0%0%0%0%0%0%0%0%
Humidity 93%90%81%67%51%36%31%29%28%27%30%33%40%51%67%77%84%88%87%89%92%92%92%90%93%86%76%64%55%42%35%30%29%31%39%48%57%65%73%79%88%93%92%91%92%93%93%95%
Dew Point 62°F62°F62°F61°F59°F56°F54°F54°F54°F53°F54°F54°F56°F57°F60°F61°F62°F62°F62°F62°F62°F62°F63°F63°F63°F63°F64°F63°F62°F58°F56°F55°F54°F54°F57°F59°F61°F62°F63°F65°F66°F66°F65°F63°F62°F61°F60°F60°F
Pressure 30.06"30.06"30.06"30.09"30.09"30.09"30.06"30.03"30"29.97"29.97"29.97"29.97"30"30"30.03"30.03"30.03"30.03"30.03"30"29.97"29.97"29.97"30"30.03"30.03"30.03"30"30"29.97"29.94"29.91"29.91"29.94"29.94"29.94"29.97"29.97"30"30"29.97"29.97"29.97"29.97"29.97"29.97"29.97"
Wind Speed 4.6 mph3.6 mph5.5 mph5.6 mph6.4 mph7.2 mph7.3 mph8 mph9.3 mph12.5 mph15.7 mph13 mph10.6 mph12.9 mph10.9 mph10.2 mph5 mph1.9 mph1 mph2.9 mph3.6 mph4 mph4.5 mph3.8 mph5.6 mph5.6 mph7.1 mph8.7 mph9.2 mph9.6 mph12.8 mph15 mph18.4 mph20.9 mph22.4 mph17.7 mph13 mph9.4 mph8.8 mph8 mph6.6 mph5.9 mph5.7 mph6.9 mph6.4 mph6.1 mph6.3 mph6.2 mph
Wind
Direction
296°
WNW
272°
W
277°
W
269°
W
274°
W
272°
W
274°
W
264°
W
267°
W
273°
W
279°
W
276°
W
272°
W
270°
W
278°
W
281°
W
286°
WNW
110°
ESE
91°
E
314°
NW
305°
NW
265°
W
258°
WSW
255°
WSW
263°
W
252°
WSW
256°
WSW
253°
WSW
235°
SW
228°
SW
229°
SW
236°
SW
248°
WSW
262°
W
270°
W
268°
W
273°
W
271°
W
273°
W
275°
W
284°
WNW
302°
WNW
325°
NW
354°
N

N
357°
N

N
359°
N

Daily Forecast

Date High Low Precip. Humidity
Today
Apr 20

Clear
92 °F
64 °F
0%
31%
Sunday
Apr 21

Clouds
90 °F
65 °F
0%
35%
Monday
Apr 22

Clouds
78 °F
56 °F
0%
52%
Tuesday
Apr 23

Clouds
81 °F
51 °F
0%
32%
Wednesday
Apr 24

Clear
86 °F
59 °F
0%
33%
Thursday
Apr 25

Rain
88 °F
65 °F
20%
35%
Friday
Apr 26

Rain
90 °F
64 °F
100%
34%
Saturday
Apr 27

Clouds
90 °F
68 °F
14%
37%
Sunday
Apr 28

Clouds
93 °F
67 °F
0%
29%
Monday
Apr 29

Clouds
90 °F
66 °F
0%
36%
Tuesday
Apr 30

Clouds
85 °F
68 °F
0%
46%
Wednesday
May 1

Clouds
93 °F
63 °F
0%
33%
Thursday
May 2

Clouds
93 °F
63 °F
0%
32%
Friday
May 3

Clouds
95 °F
63 °F
0%
28%
Saturday
May 4

Clouds
92 °F
65 °F
0%
31%
Sunday
May 5

Rain
86 °F
65 °F
20%
47%

Temperature 8-14 Day Outlook



Precipitation 8-14 Day Outlook




Quick Links
Little Lake Harris News
Little Lake Harris Photos
Little Lake Harris Videos




About Us
Contact Us
Site Map
Search Site
Advertise With Us
   
LittleHarris.USLakes.info
THE LITTLE LAKE HARRIS WEBSITE

Copyright 2024, Lakes Online
Privacy    |    Legal